Data supplied by UK-AIR on 8/11/2015
All Data GMT hour ending 
Status: R =Ratified P=Provisional,P*=As supplied
,,St Osyth,,,,,,,,,,,,,,,,,,,,,,,
Date,time,"Nitric oxide",status,unit,"Nitrogen dioxide",status,unit,"Nitrogen oxides as nitrogen dioxide",status,unit,"Ozone",status,unit
 
01-01-2014,01:00,0.83403,R,ugm-3,2.36831,R,ugm-3,3.64714,R,ugm-3,74.04047,R,ugm-3
01-01-2014,02:00,0.66065,R,ugm-3,4.21898,R,ugm-3,5.23196,R,ugm-3,75.37094,R,ugm-3
01-01-2014,03:00,0.39072,R,ugm-3,0.66890,R,ugm-3,1.26799,R,ugm-3,78.28133,R,ugm-3
01-01-2014,04:00,0.44310,R,ugm-3,1.14415,R,ugm-3,1.82357,R,ugm-3,72.79316,R,ugm-3
01-01-2014,05:00,0.62552,R,ugm-3,1.41908,R,ugm-3,2.37819,R,ugm-3,70.39832,R,ugm-3
01-01-2014,06:00,0.72967,R,ugm-3,1.37796,R,ugm-3,2.49677,R,ugm-3,69.94929,R,ugm-3
01-01-2014,07:00,0.62583,R,ugm-3,0.07028,R,ugm-3,1.02988,R,ugm-3,70.94714,R,ugm-3
01-01-2014,08:00,0.59995,R,ugm-3,1.02223,R,ugm-3,1.94214,R,ugm-3,69.79961,R,ugm-3
01-01-2014,09:00,0.54757,R,ugm-3,1.42003,R,ugm-3,2.25962,R,ugm-3,71.44606,R,ugm-3
01-01-2014,10:00,0.54757,R,ugm-3,2.52928,R,ugm-3,3.36887,R,ugm-3,71.99488,R,ugm-3
01-01-2014,11:00,0.65171,R,ugm-3,0.30839,R,ugm-3,1.30767,R,ugm-3,75.38757,R,ugm-3
01-01-2014,12:00,0.62615,R,ugm-3,0.18886,R,ugm-3,1.14893,R,ugm-3,76.68477,R,ugm-3
01-01-2014,13:00,0.62583,R,ugm-3,0.62587,R,ugm-3,1.58546,R,ugm-3,77.13381,R,ugm-3
01-01-2014,14:00,0.62615,R,ugm-3,-0.40497,R,ugm-3,0.55510,R,ugm-3,78.43101,R,ugm-3
01-01-2014,15:00,0.59995,R,ugm-3,0.26871,R,ugm-3,1.18862,R,ugm-3,75.98628,R,ugm-3
01-01-2014,16:00,0.52137,R,ugm-3,0.19125,R,ugm-3,0.99068,R,ugm-3,73.14241,R,ugm-3
01-01-2014,17:00,0.44310,R,ugm-3,0.43079,R,ugm-3,1.11021,R,ugm-3,70.59789,R,ugm-3
01-01-2014,18:00,0.39103,R,ugm-3,-0.08367,R,ugm-3,0.51590,R,ugm-3,69.30068,R,ugm-3
01-01-2014,19:00,0.44279,R,ugm-3,-0.44083,R,ugm-3,0.23811,R,ugm-3,67.80391,R,ugm-3
01-01-2014,20:00,0.44279,R,ugm-3,-0.08415,R,ugm-3,0.59479,R,ugm-3,65.75832,R,ugm-3
01-01-2014,21:00,0.57376,R,ugm-3,0.78460,R,ugm-3,1.66435,R,ugm-3,64.96004,R,ugm-3
01-01-2014,22:00,0.73029,R,ugm-3,0.62395,R,ugm-3,1.74372,R,ugm-3,65.90799,R,ugm-3
01-01-2014,23:00,0.99036,R,ugm-3,0.89935,R,ugm-3,2.41788,R,ugm-3,66.75617,R,ugm-3
01-01-2014,24:00,1.14720,R,ugm-3,0.38154,R,ugm-3,2.14057,R,ugm-3,69.50025,R,ugm-3
02-01-2014,01:00,1.18618,R,ugm-3,0.68786,R,ugm-3,2.50665,R,ugm-3,74.77223,R,ugm-3
02-01-2014,02:00,1.08141,R,ugm-3,4.18965,R,ugm-3,5.84779,R,ugm-3,78.23144,R,ugm-3
02-01-2014,03:00,1.43907,R,ugm-3,5.82117,R,ugm-3,8.02772,R,ugm-3,73.19230,R,ugm-3
02-01-2014,04:00,1.72626,R,ugm-3,4.98876,R,ugm-3,7.63566,R,ugm-3,72.64348,R,ugm-3
02-01-2014,05:00,1.93581,R,ugm-3,0.12527,R,ugm-3,3.09347,R,ugm-3,75.03832,R,ugm-3
02-01-2014,06:00,2.11916,R,ugm-3,0.58809,R,ugm-3,3.83743,R,ugm-3,75.08821,R,ugm-3
02-01-2014,07:00,1.83104,R,ugm-3,1.53861,R,ugm-3,4.34616,R,ugm-3,70.64778,R,ugm-3
02-01-2014,08:00,1.49146,R,ugm-3,1.90294,R,ugm-3,4.18981,R,ugm-3,63.36348,R,ugm-3
02-01-2014,09:00,1.80484,R,ugm-3,8.74491,R,ugm-3,11.51229,R,ugm-3,55.08132,R,ugm-3
02-01-2014,10:00,3.87193,R,ugm-3,21.74799,R,ugm-3,27.68487,R,ugm-3,44.90325,R,ugm-3
02-01-2014,11:00,4.50026,R,ugm-3,16.75111,R,ugm-3,23.65141,R,ugm-3,52.93594,R,ugm-3
02-01-2014,12:00,4.21213,R,ugm-3,13.31626,R,ugm-3,19.77477,R,ugm-3,56.27874,R,ugm-3
02-01-2014,13:00,3.71477,R,ugm-3,12.00381,R,ugm-3,17.69971,R,ugm-3,60.51960,R,ugm-3
02-01-2014,14:00,3.42758,R,ugm-3,13.34495,R,ugm-3,18.60050,R,ugm-3,60.22025,R,ugm-3
02-01-2014,15:00,2.01439,R,ugm-3,9.63757,R,ugm-3,12.72625,R,ugm-3,64.31143,R,ugm-3
02-01-2014,16:00,1.41319,R,ugm-3,6.17403,R,ugm-3,8.34089,R,ugm-3,61.51745,R,ugm-3
02-01-2014,17:00,1.54353,R,ugm-3,10.39874,R,ugm-3,12.76546,R,ugm-3,60.46971,R,ugm-3
02-01-2014,18:00,1.59530,R,ugm-3,4.71957,R,ugm-3,7.16566,R,ugm-3,66.80606,R,ugm-3
02-01-2014,19:00,1.54353,R,ugm-3,2.44896,R,ugm-3,4.81568,R,ugm-3,66.65638,R,ugm-3
02-01-2014,20:00,1.43938,R,ugm-3,3.58881,R,ugm-3,5.79583,R,ugm-3,62.46541,R,ugm-3
02-01-2014,21:00,1.30842,R,ugm-3,4.68993,R,ugm-3,6.69614,R,ugm-3,60.66928,R,ugm-3
02-01-2014,22:00,1.09887,R,ugm-3,4.38441,R,ugm-3,6.06932,R,ugm-3,60.02068,R,ugm-3
02-01-2014,23:00,0.96791,R,ugm-3,4.15491,R,ugm-3,5.63901,R,ugm-3,60.81896,R,ugm-3
02-01-2014,24:00,0.94171,R,ugm-3,2.98063,R,ugm-3,4.42457,R,ugm-3,62.61509,R,ugm-3
03-01-2014,01:00,0.80451,R,ugm-3,4.21643,R,ugm-3,5.44999,R,ugm-3,64.06197,R,ugm-3
03-01-2014,02:00,0.66481,R,ugm-3,5.26894,R,ugm-3,6.28830,R,ugm-3,68.65208,R,ugm-3
03-01-2014,03:00,0.68227,R,ugm-3,1.78388,R,ugm-3,2.83002,R,ugm-3,70.34843,R,ugm-3
03-01-2014,04:00,0.76085,R,ugm-3,0.52355,R,ugm-3,1.69017,R,ugm-3,71.74542,R,ugm-3
03-01-2014,05:00,0.94421,R,ugm-3,2.67846,R,ugm-3,4.12622,R,ugm-3,70.14886,R,ugm-3
03-01-2014,06:00,1.04898,R,ugm-3,1.73225,R,ugm-3,3.34066,R,ugm-3,71.14671,R,ugm-3
03-01-2014,07:00,1.44219,R,ugm-3,3.36935,R,ugm-3,5.58068,R,ugm-3,69.30068,R,ugm-3
03-01-2014,08:00,1.46838,R,ugm-3,1.52187,R,ugm-3,3.77336,R,ugm-3,72.99273,R,ugm-3
03-01-2014,09:00,1.20614,R,ugm-3,1.41286,R,ugm-3,3.26225,R,ugm-3,77.78241,R,ugm-3
03-01-2014,10:00,1.02279,R,ugm-3,4.68084,R,ugm-3,6.24909,R,ugm-3,77.03402,R,ugm-3
03-01-2014,11:00,1.62617,R,ugm-3,5.40664,R,ugm-3,7.90006,R,ugm-3,73.84090,R,ugm-3
03-01-2014,12:00,2.12415,R,ugm-3,6.96150,R,ugm-3,10.21849,R,ugm-3,73.59144,R,ugm-3
03-01-2014,13:00,1.49489,R,ugm-3,4.97872,R,ugm-3,7.27085,R,ugm-3,75.23789,R,ugm-3
03-01-2014,14:00,0.94421,R,ugm-3,2.87497,R,ugm-3,4.32273,R,ugm-3,80.12736,R,ugm-3
03-01-2014,15:00,0.86563,R,ugm-3,1.46306,R,ugm-3,2.79034,R,ugm-3,83.07101,R,ugm-3
03-01-2014,16:00,0.76085,R,ugm-3,2.01673,R,ugm-3,3.18336,R,ugm-3,83.96908,R,ugm-3
03-01-2014,17:00,0.62989,R,ugm-3,3.55438,R,ugm-3,4.52019,R,ugm-3,85.96478,R,ugm-3
03-01-2014,18:00,0.55068,R,ugm-3,1.67057,R,ugm-3,2.51494,R,ugm-3,90.70457,R,ugm-3
03-01-2014,19:00,0.44529,R,ugm-3,4.62299,R,ugm-3,5.30575,R,ugm-3,83.52005,R,ugm-3
03-01-2014,20:00,0.36671,R,ugm-3,4.46808,R,ugm-3,5.03035,R,ugm-3,85.81510,R,ugm-3
03-01-2014,21:00,0.26193,R,ugm-3,2.89983,R,ugm-3,3.30145,R,ugm-3,89.95618,R,ugm-3
03-01-2014,22:00,0.20955,R,ugm-3,0.81855,R,ugm-3,1.13985,R,ugm-3,91.05381,R,ugm-3
03-01-2014,23:00,0.20955,R,ugm-3,0.97585,R,ugm-3,1.29715,R,ugm-3,84.51790,R,ugm-3
03-01-2014,24:00,0.18335,R,ugm-3,2.23428,R,ugm-3,2.51542,R,ugm-3,76.63488,R,ugm-3
04-01-2014,01:00,0.21079,R,ugm-3,2.83241,R,ugm-3,3.15563,R,ugm-3,72.64348,R,ugm-3
04-01-2014,02:00,0.17545,R,ugm-3,4.72770,R,ugm-3,4.99673,R,ugm-3,72.77653,R,ugm-3
04-01-2014,03:00,0.23668,R,ugm-3,2.43748,R,ugm-3,2.80038,R,ugm-3,70.24864,R,ugm-3
04-01-2014,04:00,0.42128,R,ugm-3,2.27301,R,ugm-3,2.91895,R,ugm-3,70.39832,R,ugm-3
04-01-2014,05:00,0.52636,R,ugm-3,2.58522,R,ugm-3,3.39230,R,ugm-3,70.99703,R,ugm-3
04-01-2014,06:00,0.55255,R,ugm-3,0.41549,R,ugm-3,1.26273,R,ugm-3,79.52865,R,ugm-3
04-01-2014,07:00,0.55255,R,ugm-3,-0.01865,R,ugm-3,0.82859,R,ugm-3,75.53725,R,ugm-3
04-01-2014,08:00,0.71065,R,ugm-3,0.72484,R,ugm-3,1.81448,R,ugm-3,70.79746,R,ugm-3
04-01-2014,09:00,0.73684,R,ugm-3,0.44800,R,ugm-3,1.57781,R,ugm-3,72.29423,R,ugm-3
04-01-2014,10:00,1.02653,R,ugm-3,3.51470,R,ugm-3,5.08868,R,ugm-3,66.80606,R,ugm-3
04-01-2014,11:00,1.55289,R,ugm-3,2.62873,R,ugm-3,5.00979,R,ugm-3,67.05552,R,ugm-3
04-01-2014,12:00,1.57908,R,ugm-3,1.68157,R,ugm-3,4.10279,R,ugm-3,64.71057,R,ugm-3
04-01-2014,13:00,1.50019,R,ugm-3,2.27492,R,ugm-3,4.57518,R,ugm-3,63.61294,R,ugm-3
04-01-2014,14:00,1.23701,R,ugm-3,1.88955,R,ugm-3,3.78627,R,ugm-3,64.21165,R,ugm-3
04-01-2014,15:00,1.42130,R,ugm-3,2.83050,R,ugm-3,5.00979,R,ugm-3,62.61509,R,ugm-3
04-01-2014,16:00,1.68448,R,ugm-3,4.24097,R,ugm-3,6.82380,R,ugm-3,62.81466,R,ugm-3
04-01-2014,17:00,1.81607,R,ugm-3,5.14463,R,ugm-3,7.92923,R,ugm-3,66.00778,R,ugm-3
04-01-2014,18:00,1.50019,R,ugm-3,7.36360,R,ugm-3,9.66386,R,ugm-3,70.34843,R,ugm-3
04-01-2014,19:00,1.34241,R,ugm-3,1.01841,R,ugm-3,3.07673,R,ugm-3,73.99058,R,ugm-3
04-01-2014,20:00,1.71067,R,ugm-3,8.22471,R,ugm-3,10.84770,R,ugm-3,,,
04-01-2014,21:00,1.89465,R,ugm-3,15.75231,R,ugm-3,18.65739,R,ugm-3,54.83186,R,ugm-3
04-01-2014,22:00,2.02686,R,ugm-3,25.84457,R,ugm-3,28.95238,R,ugm-3,50.64089,R,ugm-3
04-01-2014,23:00,1.84226,R,ugm-3,25.73364,R,ugm-3,28.55841,R,ugm-3,49.14411,R,ugm-3
04-01-2014,24:00,1.63147,R,ugm-3,28.81803,R,ugm-3,31.31958,R,ugm-3,44.60390,R,ugm-3
05-01-2014,01:00,1.05646,R,ugm-3,27.56996,R,ugm-3,29.18985,R,ugm-3,43.90540,R,ugm-3
05-01-2014,02:00,0.88059,R,ugm-3,31.00736,R,ugm-3,32.35759,R,ugm-3,43.43974,R,ugm-3
05-01-2014,03:00,0.66045,R,ugm-3,24.95765,R,ugm-3,25.97032,R,ugm-3,47.49766,R,ugm-3
05-01-2014,04:00,0.44934,R,ugm-3,21.99471,R,ugm-3,22.68368,R,ugm-3,49.69293,R,ugm-3
05-01-2014,05:00,0.26412,R,ugm-3,20.02292,R,ugm-3,20.42789,R,ugm-3,51.13981,R,ugm-3
05-01-2014,06:00,0.13221,R,ugm-3,16.86012,R,ugm-3,17.06285,R,ugm-3,54.08347,R,ugm-3
05-01-2014,07:00,0.15841,R,ugm-3,14.00906,R,ugm-3,14.25195,R,ugm-3,56.27874,R,ugm-3
05-01-2014,08:00,0.15841,R,ugm-3,14.52400,R,ugm-3,14.76689,R,ugm-3,53.33508,R,ugm-3
05-01-2014,09:00,0.42252,R,ugm-3,20.41355,R,ugm-3,21.06141,R,ugm-3,48.29594,R,ugm-3
05-01-2014,10:00,1.58470,R,ugm-3,16.49388,R,ugm-3,18.92371,R,ugm-3,50.74067,R,ugm-3
05-01-2014,11:00,1.29407,R,ugm-3,12.34710,R,ugm-3,14.33132,R,ugm-3,58.17466,R,ugm-3
05-01-2014,12:00,1.92833,R,ugm-3,10.06836,R,ugm-3,13.02508,R,ugm-3,60.96864,R,ugm-3
05-01-2014,13:00,1.95452,R,ugm-3,11.13649,R,ugm-3,14.13338,R,ugm-3,62.71487,R,ugm-3
05-01-2014,14:00,1.08266,R,ugm-3,6.69327,R,ugm-3,8.35332,R,ugm-3,65.20950,R,ugm-3
05-01-2014,15:00,1.32027,R,ugm-3,7.35834,R,ugm-3,9.38273,R,ugm-3,67.35488,R,ugm-3
05-01-2014,16:00,0.89806,R,ugm-3,4.36337,R,ugm-3,5.74037,R,ugm-3,74.98843,R,ugm-3
05-01-2014,17:00,0.50204,R,ugm-3,4.73296,R,ugm-3,5.50274,R,ugm-3,73.44176,R,ugm-3
05-01-2014,18:00,0.44934,R,ugm-3,6.83288,R,ugm-3,7.52186,R,ugm-3,66.20735,R,ugm-3
05-01-2014,19:00,0.52886,R,ugm-3,4.65263,R,ugm-3,5.46353,R,ugm-3,63.86240,R,ugm-3
05-01-2014,20:00,0.31681,R,ugm-3,1.41477,R,ugm-3,1.90055,R,ugm-3,74.28993,R,ugm-3
05-01-2014,21:00,0.21111,R,ugm-3,2.05163,R,ugm-3,2.37533,R,ugm-3,68.25294,R,ugm-3
05-01-2014,22:00,0.18460,R,ugm-3,1.93354,R,ugm-3,2.21659,R,ugm-3,64.11186,R,ugm-3
05-01-2014,23:00,0.29031,R,ugm-3,2.48434,R,ugm-3,2.92947,R,ugm-3,62.61509,R,ugm-3
05-01-2014,24:00,0.39633,R,ugm-3,2.08463,R,ugm-3,2.69232,R,ugm-3,63.31358,R,ugm-3
06-01-2014,01:00,0.45942,R,ugm-3,1.15005,R,ugm-3,1.85449,R,ugm-3,64.32806,R,ugm-3
06-01-2014,02:00,0.88350,R,ugm-3,3.30735,R,ugm-3,4.66204,R,ugm-3,66.39029,R,ugm-3
06-01-2014,03:00,1.02487,R,ugm-3,0.81218,R,ugm-3,2.38361,R,ugm-3,68.05337,R,ugm-3
06-01-2014,04:00,1.03370,R,ugm-3,1.67344,R,ugm-3,3.25842,R,ugm-3,68.90154,R,ugm-3
06-01-2014,05:00,0.58311,R,ugm-3,0.97346,R,ugm-3,1.86756,R,ugm-3,73.09251,R,ugm-3
06-01-2014,06:00,0.39758,R,ugm-3,3.95983,R,ugm-3,4.56944,R,ugm-3,73.69122,R,ugm-3
06-01-2014,07:00,0.39758,R,ugm-3,2.52928,R,ugm-3,3.13889,R,ugm-3,72.79316,R,ugm-3
06-01-2014,08:00,0.37107,R,ugm-3,2.09323,R,ugm-3,2.66220,R,ugm-3,74.19015,R,ugm-3
06-01-2014,09:00,0.47709,R,ugm-3,2.88405,R,ugm-3,3.61558,R,ugm-3,83.37037,R,ugm-3
06-01-2014,10:00,0.79515,R,ugm-3,7.28376,R,ugm-3,8.50298,R,ugm-3,,,
06-01-2014,11:00,1.56380,R,ugm-3,10.03823,R,ugm-3,12.43603,R,ugm-3,77.03402,R,ugm-3
06-01-2014,12:00,0.98069,R,ugm-3,3.14463,R,ugm-3,4.64833,R,ugm-3,81.17510,R,ugm-3
06-01-2014,13:00,0.84816,R,ugm-3,3.90437,R,ugm-3,5.20487,R,ugm-3,81.22499,R,ugm-3
06-01-2014,14:00,0.95419,R,ugm-3,4.33755,R,ugm-3,5.80061,R,ugm-3,78.73037,R,ugm-3
06-01-2014,15:00,0.58311,R,ugm-3,3.67535,R,ugm-3,4.56944,R,ugm-3,80.57639,R,ugm-3
06-01-2014,16:00,0.45059,R,ugm-3,4.15682,R,ugm-3,4.84771,R,ugm-3,78.23144,R,ugm-3
06-01-2014,17:00,0.42408,R,ugm-3,5.34926,R,ugm-3,5.99951,R,ugm-3,77.53295,R,ugm-3
06-01-2014,18:00,0.39758,R,ugm-3,5.54864,R,ugm-3,6.15825,R,ugm-3,73.99058,R,ugm-3
06-01-2014,19:00,0.39758,R,ugm-3,3.24503,R,ugm-3,3.85464,R,ugm-3,76.73467,R,ugm-3
06-01-2014,20:00,0.45059,R,ugm-3,3.04374,R,ugm-3,3.73463,R,ugm-3,77.63273,R,ugm-3
06-01-2014,21:00,0.39758,R,ugm-3,3.24408,R,ugm-3,3.85369,R,ugm-3,77.03402,R,ugm-3
06-01-2014,22:00,0.34457,R,ugm-3,3.52426,R,ugm-3,4.05259,R,ugm-3,73.84090,R,ugm-3
06-01-2014,23:00,0.34457,R,ugm-3,2.92899,R,ugm-3,3.45732,R,ugm-3,72.44391,R,ugm-3
06-01-2014,24:00,0.31806,R,ugm-3,2.17451,R,ugm-3,2.66220,R,ugm-3,72.84305,R,ugm-3
07-01-2014,01:00,0.31931,R,ugm-3,1.05251,R,ugm-3,1.54211,R,ugm-3,73.04262,R,ugm-3
07-01-2014,02:00,0.21204,R,ugm-3,4.93871,R,ugm-3,5.26384,R,ugm-3,72.37739,R,ugm-3
07-01-2014,03:00,0.29249,R,ugm-3,3.25986,R,ugm-3,3.70834,R,ugm-3,70.84735,R,ugm-3
07-01-2014,04:00,0.21204,R,ugm-3,2.42601,R,ugm-3,2.75113,R,ugm-3,70.44821,R,ugm-3
07-01-2014,05:00,0.29218,R,ugm-3,3.93784,R,ugm-3,4.38584,R,ugm-3,67.20520,R,ugm-3
07-01-2014,06:00,0.29249,R,ugm-3,2.54219,R,ugm-3,2.99067,R,ugm-3,67.65423,R,ugm-3
07-01-2014,07:00,0.26568,R,ugm-3,1.38704,R,ugm-3,1.79440,R,ugm-3,69.05122,R,ugm-3
07-01-2014,08:00,0.26568,R,ugm-3,1.62658,R,ugm-3,2.03394,R,ugm-3,70.69767,R,ugm-3
07-01-2014,09:00,0.21235,R,ugm-3,1.78771,R,ugm-3,2.11331,R,ugm-3,71.44606,R,ugm-3
07-01-2014,10:00,0.39882,R,ugm-3,1.90103,R,ugm-3,2.51255,R,ugm-3,72.14456,R,ugm-3
07-01-2014,11:00,0.55786,R,ugm-3,3.37126,R,ugm-3,4.22663,R,ugm-3,70.64778,R,ugm-3
07-01-2014,12:00,0.39882,R,ugm-3,3.69495,R,ugm-3,4.30647,R,ugm-3,74.04047,R,ugm-3
07-01-2014,13:00,0.66388,R,ugm-3,5.28280,R,ugm-3,6.30073,R,ugm-3,74.28993,R,ugm-3
07-01-2014,14:00,0.98318,R,ugm-3,4.79273,R,ugm-3,6.30025,R,ugm-3,72.19445,R,ugm-3
07-01-2014,15:00,0.92955,R,ugm-3,5.83169,R,ugm-3,7.25698,R,ugm-3,70.84735,R,ugm-3
07-01-2014,16:00,0.55786,R,ugm-3,5.80396,R,ugm-3,6.65933,R,ugm-3,68.85165,R,ugm-3
07-01-2014,17:00,0.45183,R,ugm-3,8.63828,R,ugm-3,9.33109,R,ugm-3,65.75832,R,ugm-3
07-01-2014,18:00,0.42533,R,ugm-3,8.71909,R,ugm-3,9.37125,R,ugm-3,65.70842,R,ugm-3
07-01-2014,19:00,0.45183,R,ugm-3,9.75518,R,ugm-3,10.44799,R,ugm-3,65.35918,R,ugm-3
07-01-2014,20:00,0.39882,R,ugm-3,9.59693,R,ugm-3,10.20845,R,ugm-3,64.81036,R,ugm-3
07-01-2014,21:00,0.63737,R,ugm-3,11.34399,R,ugm-3,12.32128,R,ugm-3,58.52390,R,ugm-3
07-01-2014,22:00,0.85066,R,ugm-3,8.10661,R,ugm-3,9.41093,R,ugm-3,58.92304,R,ugm-3
07-01-2014,23:00,0.93017,R,ugm-3,7.98421,R,ugm-3,9.41046,R,ugm-3,59.32218,R,ugm-3
07-01-2014,24:00,0.93017,R,ugm-3,3.43868,R,ugm-3,4.86492,R,ugm-3,69.30068,R,ugm-3
08-01-2014,01:00,0.63987,R,ugm-3,4.40768,R,ugm-3,5.38879,R,ugm-3,68.05337,R,ugm-3
08-01-2014,02:00,0.49809,R,ugm-3,6.17228,R,ugm-3,6.93600,R,ugm-3,71.37954,R,ugm-3
08-01-2014,03:00,0.45339,R,ugm-3,5.74802,R,ugm-3,6.44321,R,ugm-3,66.95574,R,ugm-3
08-01-2014,04:00,0.39976,R,ugm-3,5.87042,R,ugm-3,6.48338,R,ugm-3,62.86455,R,ugm-3
08-01-2014,05:00,0.39976,R,ugm-3,4.10901,R,ugm-3,4.72196,R,ugm-3,63.81251,R,ugm-3
08-01-2014,06:00,0.26630,R,ugm-3,7.91536,R,ugm-3,8.32368,R,ugm-3,58.72347,R,ugm-3
08-01-2014,07:00,0.26630,R,ugm-3,6.59478,R,ugm-3,7.00310,R,ugm-3,58.27444,R,ugm-3
08-01-2014,08:00,0.37326,R,ugm-3,8.03154,R,ugm-3,8.60386,R,ugm-3,55.72992,R,ugm-3
08-01-2014,09:00,0.79983,R,ugm-3,11.69972,R,ugm-3,12.92611,R,ugm-3,51.83831,R,ugm-3
08-01-2014,10:00,1.97261,R,ugm-3,16.38439,R,ugm-3,19.40901,R,ugm-3,48.59530,R,ugm-3
08-01-2014,11:00,2.55946,R,ugm-3,17.20533,R,ugm-3,21.12978,R,ugm-3,49.14411,R,ugm-3
08-01-2014,12:00,2.98572,R,ugm-3,15.23163,R,ugm-3,19.80968,R,ugm-3,51.78842,R,ugm-3
08-01-2014,13:00,2.66579,R,ugm-3,13.24024,R,ugm-3,17.32773,R,ugm-3,54.03358,R,ugm-3
08-01-2014,14:00,2.02624,R,ugm-3,13.34112,R,ugm-3,16.44798,R,ugm-3,53.03573,R,ugm-3
08-01-2014,15:00,2.77306,R,ugm-3,12.19601,R,ugm-3,16.44798,R,ugm-3,50.59100,R,ugm-3
08-01-2014,16:00,2.87939,R,ugm-3,13.11353,R,ugm-3,17.52854,R,ugm-3,49.89250,R,ugm-3
08-01-2014,17:00,2.77275,R,ugm-3,4.11283,R,ugm-3,8.36432,R,ugm-3,60.32003,R,ugm-3
08-01-2014,18:00,2.87908,R,ugm-3,11.83312,R,ugm-3,16.24764,R,ugm-3,52.68648,R,ugm-3
08-01-2014,19:00,3.06618,R,ugm-3,11.02556,R,ugm-3,15.72697,R,ugm-3,54.58240,R,ugm-3
08-01-2014,20:00,3.22583,R,ugm-3,21.66623,R,ugm-3,26.61244,R,ugm-3,40.91185,R,ugm-3
08-01-2014,21:00,3.17282,R,ugm-3,22.58806,R,ugm-3,27.45298,R,ugm-3,37.16991,R,ugm-3
08-01-2014,22:00,3.06649,R,ugm-3,16.06835,R,ugm-3,20.77023,R,ugm-3,37.91830,R,ugm-3
08-01-2014,23:00,2.77275,R,ugm-3,15.71788,R,ugm-3,19.96937,R,ugm-3,33.47787,R,ugm-3
08-01-2014,24:00,2.18621,R,ugm-3,10.01433,R,ugm-3,13.36646,R,ugm-3,33.07873,R,ugm-3
09-01-2014,01:00,1.92583,R,ugm-3,8.07840,R,ugm-3,11.03130,R,ugm-3,36.05565,R,ugm-3
09-01-2014,02:00,1.85515,R,ugm-3,12.04238,R,ugm-3,14.88690,R,ugm-3,38.98267,R,ugm-3
09-01-2014,03:00,2.00628,R,ugm-3,5.79966,R,ugm-3,8.87591,R,ugm-3,42.80777,R,ugm-3
09-01-2014,04:00,1.95265,R,ugm-3,5.19913,R,ugm-3,8.19315,R,ugm-3,42.30884,R,ugm-3
09-01-2014,05:00,1.84569,R,ugm-3,5.72459,R,ugm-3,8.55461,R,ugm-3,44.40433,R,ugm-3
09-01-2014,06:00,0.77582,R,ugm-3,4.31269,R,ugm-3,5.50226,R,ugm-3,61.21810,R,ugm-3
09-01-2014,07:00,0.42782,R,ugm-3,1.71360,R,ugm-3,2.36959,R,ugm-3,75.23789,R,ugm-3
09-01-2014,08:00,0.37419,R,ugm-3,2.19746,R,ugm-3,2.77121,R,ugm-3,76.98413,R,ugm-3
09-01-2014,09:00,0.42782,R,ugm-3,6.45278,R,ugm-3,7.10876,R,ugm-3,72.39402,R,ugm-3
09-01-2014,10:00,0.82946,R,ugm-3,11.78100,R,ugm-3,13.05281,R,ugm-3,68.05337,R,ugm-3
09-01-2014,11:00,1.15032,R,ugm-3,9.68251,R,ugm-3,11.44631,R,ugm-3,69.64993,R,ugm-3
09-01-2014,12:00,1.33773,R,ugm-3,6.86492,R,ugm-3,8.91608,R,ugm-3,67.60434,R,ugm-3
09-01-2014,13:00,1.17745,R,ugm-3,5.94596,R,ugm-3,7.75136,R,ugm-3,69.89939,R,ugm-3
09-01-2014,14:00,1.28410,R,ugm-3,7.42911,R,ugm-3,9.39803,R,ugm-3,68.50240,R,ugm-3
09-01-2014,15:00,1.20365,R,ugm-3,6.30743,R,ugm-3,8.15299,R,ugm-3,65.85810,R,ugm-3
09-01-2014,16:00,0.77613,R,ugm-3,5.63757,R,ugm-3,6.82763,R,ugm-3,64.96004,R,ugm-3
09-01-2014,17:00,0.72281,R,ugm-3,8.49054,R,ugm-3,9.59884,R,ugm-3,60.12046,R,ugm-3
09-01-2014,18:00,0.88247,R,ugm-3,11.53907,R,ugm-3,12.89216,R,ugm-3,57.37638,R,ugm-3
09-01-2014,19:00,0.90928,R,ugm-3,21.77955,R,ugm-3,23.17376,R,ugm-3,46.35013,R,ugm-3
09-01-2014,20:00,1.07018,R,ugm-3,40.66358,R,ugm-3,42.30450,R,ugm-3,31.63185,R,ugm-3
09-01-2014,21:00,0.96292,R,ugm-3,49.40944,R,ugm-3,50.88589,R,ugm-3,24.94625,R,ugm-3
09-01-2014,22:00,0.93610,R,ugm-3,54.14957,R,ugm-3,55.58490,R,ugm-3,19.10883,R,ugm-3
09-01-2014,23:00,0.98973,R,ugm-3,57.88277,R,ugm-3,59.40034,R,ugm-3,16.81377,R,ugm-3
09-01-2014,24:00,0.96292,R,ugm-3,47.68245,R,ugm-3,49.15890,R,ugm-3,23.94840,R,ugm-3
10-01-2014,01:00,0.78788,R,ugm-3,40.71011,R,ugm-3,41.91818,R,ugm-3,28.07285,R,ugm-3
10-01-2014,02:00,0.64485,R,ugm-3,34.74949,R,ugm-3,35.73825,R,ugm-3,32.79600,R,ugm-3
10-01-2014,03:00,0.61773,R,ugm-3,28.91987,R,ugm-3,29.86703,R,ugm-3,33.12862,R,ugm-3
10-01-2014,04:00,0.53634,R,ugm-3,24.16731,R,ugm-3,24.98968,R,ugm-3,37.46927,R,ugm-3
10-01-2014,05:00,0.40225,R,ugm-3,22.27728,R,ugm-3,22.89406,R,ugm-3,38.51701,R,ugm-3
10-01-2014,06:00,0.34862,R,ugm-3,16.91798,R,ugm-3,17.45252,R,ugm-3,42.55830,R,ugm-3
10-01-2014,07:00,0.24135,R,ugm-3,16.71955,R,ugm-3,17.08962,R,ugm-3,44.60390,R,ugm-3
10-01-2014,08:00,0.16090,R,ugm-3,19.38271,R,ugm-3,19.62942,R,ugm-3,43.95529,R,ugm-3
10-01-2014,09:00,0.67105,R,ugm-3,20.01049,R,ugm-3,21.03941,R,ugm-3,42.20906,R,ugm-3
10-01-2014,10:00,3.51707,R,ugm-3,24.55459,R,ugm-3,29.94736,R,ugm-3,40.71228,R,ugm-3
10-01-2014,11:00,9.90699,R,ugm-3,32.81372,R,ugm-3,48.00423,R,ugm-3,34.77507,R,ugm-3
10-01-2014,12:00,8.69867,R,ugm-3,27.73412,R,ugm-3,41.07189,R,ugm-3,41.80992,R,ugm-3
10-01-2014,13:00,7.70551,R,ugm-3,26.95956,R,ugm-3,38.77450,R,ugm-3,45.15271,R,ugm-3
10-01-2014,14:00,9.58488,R,ugm-3,27.54383,R,ugm-3,42.24043,R,ugm-3,50.89035,R,ugm-3
10-01-2014,15:00,3.49026,R,ugm-3,17.58209,R,ugm-3,22.93374,R,ugm-3,54.48261,R,ugm-3
10-01-2014,16:00,2.12103,R,ugm-3,15.65142,R,ugm-3,18.90363,R,ugm-3,53.43487,R,ugm-3
10-01-2014,17:00,2.01377,R,ugm-3,16.50105,R,ugm-3,19.58878,R,ugm-3,48.29594,R,ugm-3
10-01-2014,18:00,2.14785,R,ugm-3,11.41810,R,ugm-3,14.71143,R,ugm-3,54.68218,R,ugm-3
10-01-2014,19:00,2.01377,R,ugm-3,13.80012,R,ugm-3,16.88785,R,ugm-3,52.33723,R,ugm-3
10-01-2014,20:00,1.71847,R,ugm-3,9.98086,R,ugm-3,12.61581,R,ugm-3,54.43272,R,ugm-3
10-01-2014,21:00,1.12756,R,ugm-3,9.35547,R,ugm-3,11.08437,R,ugm-3,54.78197,R,ugm-3
10-01-2014,22:00,0.80576,R,ugm-3,14.20175,R,ugm-3,15.43722,R,ugm-3,49.69293,R,ugm-3
10-01-2014,23:00,0.69849,R,ugm-3,15.37363,R,ugm-3,16.44463,R,ugm-3,48.59530,R,ugm-3
10-01-2014,24:00,0.75212,R,ugm-3,10.77742,R,ugm-3,11.93065,R,ugm-3,51.83831,R,ugm-3
11-01-2014,01:00,0.75462,R,ugm-3,5.69224,R,ugm-3,6.84930,R,ugm-3,53.08562,R,ugm-3
11-01-2014,02:00,0.53883,R,ugm-3,7.69526,R,ugm-3,8.52146,R,ugm-3,58.80663,R,ugm-3
11-01-2014,03:00,0.72718,R,ugm-3,6.65120,R,ugm-3,7.76618,R,ugm-3,54.88175,R,ugm-3
11-01-2014,04:00,1.07798,R,ugm-3,4.94047,R,ugm-3,6.59334,R,ugm-3,56.22885,R,ugm-3
11-01-2014,05:00,1.26632,R,ugm-3,5.82452,R,ugm-3,7.76618,R,ugm-3,52.53680,R,ugm-3
11-01-2014,06:00,1.10448,R,ugm-3,4.81902,R,ugm-3,6.51254,R,ugm-3,51.48906,R,ugm-3
11-01-2014,07:00,0.75431,R,ugm-3,5.92206,R,ugm-3,7.07864,R,ugm-3,52.83616,R,ugm-3
11-01-2014,08:00,0.64610,R,ugm-3,3.57972,R,ugm-3,4.57040,R,ugm-3,67.20520,R,ugm-3
11-01-2014,09:00,0.80794,R,ugm-3,3.04853,R,ugm-3,4.28735,R,ugm-3,66.95574,R,ugm-3
11-01-2014,10:00,1.26632,R,ugm-3,4.89409,R,ugm-3,6.83575,R,ugm-3,59.12261,R,ugm-3
11-01-2014,11:00,1.99350,R,ugm-3,5.68013,R,ugm-3,8.73678,R,ugm-3,58.47401,R,ugm-3
11-01-2014,12:00,2.58628,R,ugm-3,7.32009,R,ugm-3,11.28566,R,ugm-3,59.27229,R,ugm-3
11-01-2014,13:00,2.18215,R,ugm-3,5.47214,R,ugm-3,8.81806,R,ugm-3,62.51530,R,ugm-3
11-01-2014,14:00,1.93986,R,ugm-3,5.35835,R,ugm-3,8.33276,R,ugm-3,65.20950,R,ugm-3
11-01-2014,15:00,1.26601,R,ugm-3,3.92397,R,ugm-3,5.86516,R,ugm-3,67.00563,R,ugm-3
11-01-2014,16:00,1.05085,R,ugm-3,4.57709,R,ugm-3,6.18837,R,ugm-3,62.66498,R,ugm-3
11-01-2014,17:00,0.91614,R,ugm-3,6.52306,R,ugm-3,7.92779,R,ugm-3,57.82541,R,ugm-3
11-01-2014,18:00,1.34708,R,ugm-3,7.84460,R,ugm-3,9.91010,R,ugm-3,50.94024,R,ugm-3
11-01-2014,19:00,1.80516,R,ugm-3,13.53333,R,ugm-3,16.30119,R,ugm-3,42.85766,R,ugm-3
11-01-2014,20:00,2.12883,R,ugm-3,17.32438,R,ugm-3,20.58854,R,ugm-3,37.12002,R,ugm-3
11-01-2014,21:00,2.15533,R,ugm-3,18.05257,R,ugm-3,21.35737,R,ugm-3,34.77507,R,ugm-3
11-01-2014,22:00,2.34399,R,ugm-3,18.45132,R,ugm-3,22.04539,R,ugm-3,29.98539,R,ugm-3
11-01-2014,23:00,2.34399,R,ugm-3,21.68679,R,ugm-3,25.28086,R,ugm-3,25.94410,R,ugm-3
11-01-2014,24:00,2.34399,R,ugm-3,33.98321,R,ugm-3,37.57728,R,ugm-3,17.61205,R,ugm-3
12-01-2014,01:00,4.46450,R,ugm-3,26.11583,R,ugm-3,32.96130,R,ugm-3,12.97205,R,ugm-3
12-01-2014,02:00,4.68070,R,ugm-3,24.91860,R,ugm-3,32.09558,R,ugm-3,10.90983,R,ugm-3
12-01-2014,03:00,6.21062,R,ugm-3,18.68943,R,ugm-3,28.21224,R,ugm-3,10.12818,R,ugm-3
12-01-2014,04:00,3.96953,R,ugm-3,17.74131,R,ugm-3,23.82784,R,ugm-3,10.77678,R,ugm-3
12-01-2014,05:00,2.43036,R,ugm-3,17.95025,R,ugm-3,21.67675,R,ugm-3,14.01979,R,ugm-3
12-01-2014,06:00,1.75526,R,ugm-3,16.67126,R,ugm-3,19.36263,R,ugm-3,32.48002,R,ugm-3
12-01-2014,07:00,1.10729,R,ugm-3,12.18502,R,ugm-3,13.88284,R,ugm-3,40.66239,R,ugm-3
12-01-2014,08:00,0.78299,R,ugm-3,17.87805,R,ugm-3,19.07862,R,ugm-3,38.16776,R,ugm-3
12-01-2014,09:00,0.83694,R,ugm-3,18.03822,R,ugm-3,19.32151,R,ugm-3,48.99444,R,ugm-3
12-01-2014,10:00,1.02622,R,ugm-3,8.98062,R,ugm-3,10.55413,R,ugm-3,62.56520,R,ugm-3
12-01-2014,11:00,2.51144,R,ugm-3,12.75159,R,ugm-3,16.60241,R,ugm-3,59.27229,R,ugm-3
12-01-2014,12:00,1.91710,R,ugm-3,7.73606,R,ugm-3,10.67558,R,ugm-3,60.51960,R,ugm-3
12-01-2014,13:00,2.64646,R,ugm-3,9.05330,R,ugm-3,13.11114,R,ugm-3,59.57165,R,ugm-3
12-01-2014,14:00,2.78117,R,ugm-3,9.78100,R,ugm-3,14.04540,R,ugm-3,56.87745,R,ugm-3
12-01-2014,15:00,1.83634,R,ugm-3,3.92302,R,ugm-3,6.73869,R,ugm-3,60.71917,R,ugm-3
12-01-2014,16:00,1.59311,R,ugm-3,5.67582,R,ugm-3,8.11856,R,ugm-3,57.92519,R,ugm-3
12-01-2014,17:00,1.35020,R,ugm-3,7.75328,R,ugm-3,9.82356,R,ugm-3,49.79272,R,ugm-3
12-01-2014,18:00,1.56630,R,ugm-3,6.93473,R,ugm-3,9.33635,R,ugm-3,46.05078,R,ugm-3
12-01-2014,19:00,1.67450,R,ugm-3,7.17427,R,ugm-3,9.74180,R,ugm-3,42.95744,R,ugm-3
12-01-2014,20:00,1.48522,R,ugm-3,7.54625,R,ugm-3,9.82356,R,ugm-3,41.41078,R,ugm-3
12-01-2014,21:00,1.32307,R,ugm-3,7.34830,R,ugm-3,9.37699,R,ugm-3,39.96389,R,ugm-3
12-01-2014,22:00,1.35020,R,ugm-3,9.49843,R,ugm-3,11.56871,R,ugm-3,36.02239,R,ugm-3
12-01-2014,23:00,1.37733,R,ugm-3,9.29427,R,ugm-3,11.40615,R,ugm-3,35.47357,R,ugm-3